Time,TemperatureF,DewpointF,PressureIn,WindDirection,WindDirectionDegrees,WindSpeedMPH,WindSpeedGustMPH,Humidity,HourlyPrecipIn,Conditions,Clouds,dailyrainin,SoftwareType,DateUTC
2013-05-06 00:00:00,54.9,47.8,30.14,ENE,60,9.0,10.0,77,0.00,,---,0.00,VWS V14.01,2013-05-06 04:00:00,
2013-05-06 00:01:00,54.9,48.2,30.14,ENE,65,7.0,11.0,78,0.00,,---,0.00,VWS V14.01,2013-05-06 04:01:00,
2013-05-06 00:06:00,54.7,48.0,30.14,East,86,3.0,11.0,78,0.00,,---,0.00,VWS V14.01,2013-05-06 04:06:00,
2013-05-06 00:10:00,54.7,48.3,30.14,ENE,74,3.0,11.0,79,0.00,,---,0.00,VWS V14.01,2013-05-06 04:10:00,
2013-05-06 00:11:00,54.6,48.2,30.14,ENE,77,7.0,9.0,79,0.00,,---,0.00,VWS V14.01,2013-05-06 04:11:00,
2013-05-06 00:16:00,54.4,48.4,30.14,ENE,77,6.0,11.0,80,0.00,,---,0.00,VWS V14.01,2013-05-06 04:16:00,
2013-05-06 00:20:00,54.3,48.3,30.14,East,79,4.0,11.0,80,0.00,,---,0.00,VWS V14.01,2013-05-06 04:20:00,
2013-05-06 00:21:00,54.2,48.2,30.14,ENE,60,7.0,11.0,80,0.00,,---,0.00,VWS V14.01,2013-05-06 04:21:00,
2013-05-06 00:26:00,54.0,48.0,30.14,East,80,5.0,11.0,80,0.00,,---,0.00,VWS V14.01,2013-05-06 04:26:00,
2013-05-06 00:30:00,53.9,48.2,30.14,NE,56,4.0,11.0,81,0.00,,---,0.00,VWS V14.01,2013-05-06 04:30:00,
2013-05-06 00:31:00,53.8,48.1,30.14,East,96,4.0,9.0,81,0.00,,---,0.00,VWS V14.01,2013-05-06 04:31:00,
2013-05-06 00:36:00,53.6,47.9,30.14,ENE,65,4.0,9.0,81,0.00,,---,0.00,VWS V14.01,2013-05-06 04:36:00,
2013-05-06 00:40:00,53.5,47.8,30.13,ENE,70,2.0,9.0,81,0.00,,---,0.00,VWS V14.01,2013-05-06 04:40:00,
2013-05-06 00:41:00,53.4,47.7,30.13,ENE,70,1.0,7.0,81,0.00,,---,0.00,VWS V14.01,2013-05-06 04:41:00,
2013-05-06 00:46:00,53.3,47.6,30.13,ENE,60,5.0,8.0,81,0.00,,---,0.00,VWS V14.01,2013-05-06 04:46:00,
2013-05-06 00:50:00,53.2,47.5,30.13,NE,52,5.0,9.0,81,0.00,,---,0.00,VWS V14.01,2013-05-06 04:50:00,
2013-05-06 00:51:00,53.2,47.5,30.13,ENE,68,6.0,9.0,81,0.00,,---,0.00,VWS V14.01,2013-05-06 04:51:00,
2013-05-06 00:57:00,53.2,47.5,30.13,East,79,6.0,9.0,81,0.00,,---,0.00,VWS V14.01,2013-05-06 04:57:00,
2013-05-06 01:00:00,53.2,47.9,30.13,ENE,70,3.0,10.0,82,0.00,,---,0.00,VWS V14.01,2013-05-06 05:00:00,
2013-05-06 01:02:00,53.2,47.9,30.13,ENE,70,4.0,9.0,82,0.00,,---,0.00,VWS V14.01,2013-05-06 05:02:00,
2013-05-06 01:07:00,53.1,47.8,30.13,East,79,3.0,9.0,82,0.00,,---,0.00,VWS V14.01,2013-05-06 05:07:00,
2013-05-06 01:10:00,53.1,47.8,30.13,NE,49,5.0,9.0,82,0.00,,---,0.00,VWS V14.01,2013-05-06 05:10:00,
2013-05-06 01:12:00,53.1,47.8,30.13,NE,41,8.0,8.0,82,0.00,,---,0.00,VWS V14.01,2013-05-06 05:12:00,
2013-05-06 01:17:00,53.2,47.9,30.13,ENE,63,4.0,9.0,82,0.00,,---,0.00,VWS V14.01,2013-05-06 05:17:00,
2013-05-06 01:20:00,53.2,47.9,30.12,NE,47,3.0,9.0,82,0.00,,---,0.00,VWS V14.01,2013-05-06 05:20:00,
2013-05-06 01:22:00,53.2,48.2,30.13,ENE,71,1.0,7.0,83,0.00,,---,0.00,VWS V14.01,2013-05-06 05:22:00,
2013-05-06 01:27:00,53.1,48.1,30.13,NE,54,4.0,10.0,83,0.00,,---,0.00,VWS V14.01,2013-05-06 05:27:00,
2013-05-06 01:30:00,53.2,48.2,30.13,East,90,4.0,10.0,83,0.00,,---,0.00,VWS V14.01,2013-05-06 05:30:00,
2013-05-06 01:32:00,53.1,48.1,30.13,ENE,65,3.0,5.0,83,0.00,,---,0.00,VWS V14.01,2013-05-06 05:32:00,
2013-05-06 01:37:00,53.0,48.0,30.13,NE,56,7.0,7.0,83,0.00,,---,0.00,VWS V14.01,2013-05-06 05:37:00,
2013-05-06 01:40:00,53.0,48.0,30.13,ENE,58,5.0,8.0,83,0.00,,---,0.00,VWS V14.01,2013-05-06 05:40:00,
2013-05-06 01:42:00,53.0,48.0,30.13,East,90,7.0,8.0,83,0.00,,---,0.00,VWS V14.01,2013-05-06 05:42:00,
2013-05-06 01:47:00,52.9,47.9,30.13,NE,43,4.0,9.0,83,0.00,,---,0.00,VWS V14.01,2013-05-06 05:47:00,
2013-05-06 01:50:00,52.9,47.9,30.13,East,91,3.0,9.0,83,0.00,,---,0.00,VWS V14.01,2013-05-06 05:50:00,
2013-05-06 01:52:00,52.9,47.9,30.13,ENE,62,5.0,12.0,83,0.00,,---,0.00,VWS V14.01,2013-05-06 05:52:00,
2013-05-06 01:57:00,52.9,47.9,30.12,ENE,78,4.0,12.0,83,0.00,,---,0.00,VWS V14.01,2013-05-06 05:57:00,
2013-05-06 02:00:00,52.8,47.8,30.12,ENE,77,2.0,12.0,83,0.00,,---,0.00,VWS V14.01,2013-05-06 06:00:00,
2013-05-06 02:02:00,52.8,47.8,30.13,East,89,3.0,6.0,83,0.00,,---,0.00,VWS V14.01,2013-05-06 06:02:00,
2013-05-06 02:07:00,52.8,47.8,30.13,East,90,2.0,9.0,83,0.00,,---,0.00,VWS V14.01,2013-05-06 06:07:00,
2013-05-06 02:10:00,52.8,47.8,30.13,ENE,58,4.0,10.0,83,0.00,,---,0.00,VWS V14.01,2013-05-06 06:10:00,
2013-05-06 02:12:00,52.8,47.8,30.13,ENE,70,3.0,5.0,83,0.00,,---,0.00,VWS V14.01,2013-05-06 06:12:00,
2013-05-06 02:17:00,52.7,47.7,30.12,NE,46,2.0,5.0,83,0.00,,---,0.00,VWS V14.01,2013-05-06 06:17:00,
2013-05-06 02:20:00,52.7,48.0,30.12,NE,39,4.0,6.0,84,0.00,,---,0.00,VWS V14.01,2013-05-06 06:20:00,
2013-05-06 02:22:00,52.7,48.0,30.12,NNE,31,4.0,5.0,84,0.00,,---,0.00,VWS V14.01,2013-05-06 06:22:00,
2013-05-06 02:27:00,52.5,47.8,30.12,ENE,63,3.0,8.0,84,0.00,,---,0.00,VWS V14.01,2013-05-06 06:27:00,
2013-05-06 02:30:00,52.4,47.7,30.12,NNW,330,2.0,8.0,84,0.00,,---,0.00,VWS V14.01,2013-05-06 06:30:00,
2013-05-06 02:32:00,52.4,47.7,30.12,NE,53,3.0,7.0,84,0.00,,---,0.00,VWS V14.01,2013-05-06 06:32:00,
2013-05-06 02:37:00,52.2,47.5,30.12,ENE,63,4.0,7.0,84,0.00,,---,0.00,VWS V14.01,2013-05-06 06:37:00,
2013-05-06 02:40:00,52.2,47.5,30.12,ENE,62,6.0,7.0,84,0.00,,---,0.00,VWS V14.01,2013-05-06 06:40:00,
2013-05-06 02:42:00,52.1,47.4,30.12,NNE,26,1.0,9.0,84,0.00,,---,0.00,VWS V14.01,2013-05-06 06:42:00,
2013-05-06 02:47:00,52.0,47.6,30.11,NE,46,0.0,9.0,85,0.00,,---,0.00,VWS V14.01,2013-05-06 06:47:00,
2013-05-06 02:50:00,52.0,47.6,30.11,NE,46,2.0,9.0,85,0.00,,---,0.00,VWS V14.01,2013-05-06 06:50:00,
2013-05-06 02:52:00,51.9,47.5,30.11,NE,56,1.0,7.0,85,0.00,,---,0.00,VWS V14.01,2013-05-06 06:52:00,
2013-05-06 02:57:00,51.8,47.4,30.11,ENE,60,4.0,7.0,85,0.00,,---,0.00,VWS V14.01,2013-05-06 06:57:00,
2013-05-06 03:00:00,51.8,47.8,30.11,East,91,1.0,8.0,86,0.00,,---,0.00,VWS V14.01,2013-05-06 07:00:00,
2013-05-06 03:02:00,51.7,47.7,30.11,NNE,29,6.0,7.0,86,0.00,,---,0.00,VWS V14.01,2013-05-06 07:02:00,
2013-05-06 03:07:00,51.6,47.6,30.11,NNW,337,0.0,8.0,86,0.00,,---,0.00,VWS V14.01,2013-05-06 07:07:00,
2013-05-06 03:10:00,51.6,47.6,30.11,ENE,60,1.0,8.0,86,0.00,,---,0.00,VWS V14.01,2013-05-06 07:10:00,
2013-05-06 03:12:00,51.6,47.6,30.11,NE,46,2.0,5.0,86,0.00,,---,0.00,VWS V14.01,2013-05-06 07:12:00,
2013-05-06 03:17:00,51.6,47.6,30.10,NE,36,2.0,7.0,86,0.00,,---,0.00,VWS V14.01,2013-05-06 07:17:00,
2013-05-06 03:20:00,51.6,47.6,30.10,East,94,1.0,7.0,86,0.00,,---,0.00,VWS V14.01,2013-05-06 07:20:00,
2013-05-06 03:22:00,51.6,47.6,30.10,NE,36,2.0,7.0,86,0.00,,---,0.00,VWS V14.01,2013-05-06 07:22:00,
2013-05-06 03:27:00,51.6,47.6,30.10,North,351,3.0,8.0,86,0.00,,---,0.00,VWS V14.01,2013-05-06 07:27:00,
2013-05-06 03:30:00,51.5,47.5,30.10,ENE,60,1.0,8.0,86,0.00,,---,0.00,VWS V14.01,2013-05-06 07:30:00,
2013-05-06 03:32:00,51.5,47.5,30.10,NNW,345,0.0,5.0,86,0.00,,---,0.00,VWS V14.01,2013-05-06 07:32:00,
2013-05-06 03:37:00,51.5,47.5,30.10,North,351,1.0,7.0,86,0.00,,---,0.00,VWS V14.01,2013-05-06 07:37:00,
2013-05-06 03:40:00,51.5,47.5,30.10,ENE,60,2.0,7.0,86,0.00,,---,0.00,VWS V14.01,2013-05-06 07:40:00,
2013-05-06 03:42:00,51.5,47.5,30.10,ENE,70,3.0,8.0,86,0.00,,---,0.00,VWS V14.01,2013-05-06 07:42:00,
2013-05-06 03:47:00,51.4,47.7,30.09,ENE,72,2.0,10.0,87,0.00,,---,0.00,VWS V14.01,2013-05-06 07:47:00,
2013-05-06 03:50:00,51.4,47.7,30.09,NE,46,0.0,10.0,87,0.00,,---,0.00,VWS V14.01,2013-05-06 07:50:00,
2013-05-06 03:52:00,51.3,47.9,30.09,NE,43,4.0,4.0,88,0.00,,---,0.00,VWS V14.01,2013-05-06 07:52:00,
2013-05-06 03:57:00,51.1,48.0,30.09,NNW,346,1.0,7.0,89,0.00,,---,0.00,VWS V14.01,2013-05-06 07:57:00,
2013-05-06 04:00:00,51.0,47.9,30.09,ENE,60,2.0,7.0,89,0.00,,---,0.00,VWS V14.01,2013-05-06 08:00:00,
2013-05-06 04:02:00,50.9,47.8,30.09,NNE,33,2.0,7.0,89,0.00,,---,0.00,VWS V14.01,2013-05-06 08:02:00,
2013-05-06 04:07:00,50.7,47.9,30.09,NNE,20,2.0,7.0,90,0.00,,---,0.00,VWS V14.01,2013-05-06 08:07:00,
2013-05-06 04:10:00,50.6,47.8,30.09,ENE,68,4.0,7.0,90,0.00,,---,0.00,VWS V14.01,2013-05-06 08:10:00,
2013-05-06 04:12:00,50.6,48.1,30.09,ENE,63,0.0,7.0,91,0.00,,---,0.00,VWS V14.01,2013-05-06 08:12:00,
2013-05-06 04:17:00,50.5,48.0,30.09,NE,44,3.0,7.0,91,0.00,,---,0.00,VWS V14.01,2013-05-06 08:17:00,
2013-05-06 04:20:00,50.4,47.9,30.09,NE,50,0.0,7.0,91,0.00,,---,0.00,VWS V14.01,2013-05-06 08:20:00,
2013-05-06 04:22:00,50.4,47.9,30.09,NNW,334,4.0,4.0,91,0.00,,---,0.00,VWS V14.01,2013-05-06 08:22:00,
2013-05-06 04:27:00,50.4,48.2,30.09,ENE,66,1.0,9.0,92,0.00,,---,0.00,VWS V14.01,2013-05-06 08:27:00,
2013-05-06 04:30:00,50.4,48.2,30.09,ENE,70,0.0,9.0,92,0.00,,---,0.00,VWS V14.01,2013-05-06 08:30:00,
2013-05-06 04:32:00,50.3,48.1,30.09,ENE,63,7.0,7.0,92,0.00,,---,0.00,VWS V14.01,2013-05-06 08:32:00,
2013-05-06 04:37:00,50.3,48.1,30.09,East,99,4.0,7.0,92,0.00,,---,0.00,VWS V14.01,2013-05-06 08:37:00,
2013-05-06 04:40:00,50.3,48.1,30.09,NNE,25,2.0,7.0,92,0.00,,---,0.00,VWS V14.01,2013-05-06 08:40:00,
2013-05-06 04:42:00,50.4,48.2,30.09,NE,47,3.0,9.0,92,0.00,,---,0.00,VWS V14.01,2013-05-06 08:42:00,
2013-05-06 04:47:00,50.4,48.2,30.09,NE,51,5.0,9.0,92,0.00,,---,0.00,VWS V14.01,2013-05-06 08:47:00,
2013-05-06 04:50:00,50.4,48.2,30.09,ENE,62,3.0,9.0,92,0.00,,---,0.00,VWS V14.01,2013-05-06 08:50:00,
2013-05-06 04:52:00,50.4,48.2,30.09,NE,55,4.0,12.0,92,0.00,,---,0.00,VWS V14.01,2013-05-06 08:52:00,
2013-05-06 04:58:00,50.4,47.9,30.09,ENE,64,3.0,12.0,91,0.00,,---,0.00,VWS V14.01,2013-05-06 08:58:00,
2013-05-06 05:00:00,50.4,47.9,30.09,ENE,62,6.0,12.0,91,0.00,,---,0.00,VWS V14.01,2013-05-06 09:00:00,
2013-05-06 05:03:00,50.4,48.2,30.09,NE,43,3.0,10.0,92,0.00,,---,0.00,VWS V14.01,2013-05-06 09:03:00,
2013-05-06 05:08:00,50.4,48.2,30.09,NE,43,4.0,10.0,92,0.00,,---,0.00,VWS V14.01,2013-05-06 09:08:00,
2013-05-06 05:10:00,50.4,48.2,30.09,ENE,68,3.0,10.0,92,0.00,,---,0.00,VWS V14.01,2013-05-06 09:10:00,
2013-05-06 05:13:00,50.4,47.9,30.09,NE,53,9.0,13.0,91,0.00,,---,0.00,VWS V14.01,2013-05-06 09:13:00,
2013-05-06 05:18:00,50.4,47.9,30.09,NNE,20,6.0,13.0,91,0.00,,---,0.00,VWS V14.01,2013-05-06 09:18:00,
2013-05-06 05:20:00,50.3,47.8,30.09,ENE,62,7.0,13.0,91,0.00,,---,0.00,VWS V14.01,2013-05-06 09:20:00,
2013-05-06 05:23:00,50.3,48.1,30.09,ENE,75,4.0,9.0,92,0.00,,---,0.00,VWS V14.01,2013-05-06 09:23:00,
2013-05-06 05:28:00,50.3,48.1,30.09,NE,51,3.0,10.0,92,0.00,,---,0.00,VWS V14.01,2013-05-06 09:28:00,
2013-05-06 05:30:00,50.3,48.1,30.09,ENE,62,3.0,10.0,92,0.00,,---,0.00,VWS V14.01,2013-05-06 09:30:00,
2013-05-06 05:33:00,50.3,48.1,30.09,ENE,75,1.0,11.0,92,0.00,,---,0.00,VWS V14.01,2013-05-06 09:33:00,
2013-05-06 05:38:00,50.2,48.0,30.09,NE,53,5.0,11.0,92,0.00,,---,0.00,VWS V14.01,2013-05-06 09:38:00,
2013-05-06 05:40:00,50.2,48.0,30.09,NE,46,4.0,11.0,92,0.00,,---,0.00,VWS V14.01,2013-05-06 09:40:00,
2013-05-06 05:43:00,50.1,47.9,30.09,East,99,3.0,8.0,92,0.00,,---,0.00,VWS V14.01,2013-05-06 09:43:00,
2013-05-06 05:48:00,50.1,48.2,30.09,NE,53,4.0,11.0,93,0.00,,---,0.00,VWS V14.01,2013-05-06 09:48:00,
2013-05-06 05:50:00,50.1,47.9,30.09,NE,44,6.0,11.0,92,0.00,,---,0.00,VWS V14.01,2013-05-06 09:50:00,
2013-05-06 05:53:00,50.1,48.2,30.09,ENE,69,2.0,12.0,93,0.00,,---,0.00,VWS V14.01,2013-05-06 09:53:00,
2013-05-06 05:58:00,50.1,48.2,30.09,ESE,110,6.0,12.0,93,0.00,,---,0.00,VWS V14.01,2013-05-06 09:58:00,
2013-05-06 06:00:00,50.1,48.2,30.09,NE,40,2.0,12.0,93,0.00,,---,0.00,VWS V14.01,2013-05-06 10:00:00,
2013-05-06 06:03:00,50.2,48.3,30.09,NE,53,2.0,6.0,93,0.00,,---,0.00,VWS V14.01,2013-05-06 10:03:00,
2013-05-06 06:08:00,50.2,48.3,30.09,ENE,68,1.0,11.0,93,0.00,,---,0.00,VWS V14.01,2013-05-06 10:08:00,
2013-05-06 06:10:00,50.2,48.3,30.09,NE,40,3.0,11.0,93,0.00,,---,0.00,VWS V14.01,2013-05-06 10:10:00,
2013-05-06 06:13:00,50.2,48.3,30.09,East,84,5.0,13.0,93,0.00,,---,0.00,VWS V14.01,2013-05-06 10:13:00,
2013-05-06 06:18:00,50.2,48.3,30.09,NNE,27,6.0,13.0,93,0.00,,---,0.00,VWS V14.01,2013-05-06 10:18:00,
2013-05-06 06:20:00,50.2,48.3,30.09,NE,42,0.0,13.0,93,0.00,,---,0.00,VWS V14.01,2013-05-06 10:20:00,
2013-05-06 06:23:00,50.2,48.3,30.09,ENE,78,2.0,11.0,93,0.00,,---,0.00,VWS V14.01,2013-05-06 10:23:00,
2013-05-06 06:28:00,50.1,48.2,30.09,ENE,78,7.0,11.0,93,0.00,,---,0.00,VWS V14.01,2013-05-06 10:28:00,
2013-05-06 06:30:00,50.1,48.2,30.09,ENE,60,2.0,11.0,93,0.00,,---,0.00,VWS V14.01,2013-05-06 10:30:00,
2013-05-06 06:33:00,50.1,48.2,30.09,NNE,15,3.0,14.0,93,0.00,,---,0.00,VWS V14.01,2013-05-06 10:33:00,
2013-05-06 06:38:00,50.0,48.1,30.09,NE,53,2.0,14.0,93,0.00,,---,0.00,VWS V14.01,2013-05-06 10:38:00,
2013-05-06 06:40:00,50.1,48.2,30.09,ENE,77,1.0,14.0,93,0.00,,---,0.00,VWS V14.01,2013-05-06 10:40:00,
2013-05-06 06:43:00,50.0,48.1,30.09,NE,44,2.0,6.0,93,0.00,,---,0.00,VWS V14.01,2013-05-06 10:43:00,
2013-05-06 06:48:00,50.0,48.1,30.09,ENE,57,5.0,7.0,93,0.00,,---,0.00,VWS V14.01,2013-05-06 10:48:00,
2013-05-06 06:50:00,50.0,48.1,30.09,East,92,4.0,7.0,93,0.00,,---,0.00,VWS V14.01,2013-05-06 10:50:00,
2013-05-06 06:53:00,50.0,48.3,30.10,East,86,5.0,6.0,94,0.00,,---,0.00,VWS V14.01,2013-05-06 10:53:00,
2013-05-06 06:58:00,50.0,48.3,30.10,ENE,67,4.0,6.0,94,0.00,,---,0.00,VWS V14.01,2013-05-06 10:58:00,
2013-05-06 07:00:00,50.1,48.4,30.10,NNE,31,5.0,7.0,94,0.00,,---,0.00,VWS V14.01,2013-05-06 11:00:00,
2013-05-06 07:03:00,50.1,48.2,30.10,NE,34,4.0,10.0,93,0.00,,---,0.00,VWS V14.01,2013-05-06 11:03:00,
2013-05-06 07:08:00,50.1,48.4,30.10,NE,44,1.0,10.0,94,0.00,,---,0.00,VWS V14.01,2013-05-06 11:08:00,
2013-05-06 07:10:00,50.1,48.4,30.10,ENE,72,4.0,10.0,94,0.00,,---,0.00,VWS V14.01,2013-05-06 11:10:00,
2013-05-06 07:13:00,50.1,48.4,30.10,ESE,117,0.0,6.0,94,0.00,,---,0.00,VWS V14.01,2013-05-06 11:13:00,
2013-05-06 07:18:00,50.1,48.4,30.10,ENE,58,1.0,7.0,94,0.00,,---,0.00,VWS V14.01,2013-05-06 11:18:00,
2013-05-06 07:20:00,50.1,48.4,30.10,NE,44,5.0,7.0,94,0.00,,---,0.00,VWS V14.01,2013-05-06 11:20:00,
2013-05-06 07:23:00,50.1,48.4,30.10,ENE,70,0.0,6.0,94,0.00,,---,0.00,VWS V14.01,2013-05-06 11:23:00,
2013-05-06 07:28:00,50.0,48.3,30.10,ENE,67,3.0,8.0,94,0.00,,---,0.00,VWS V14.01,2013-05-06 11:28:00,
2013-05-06 07:30:00,50.0,48.3,30.10,NE,53,6.0,11.0,94,0.00,,---,0.00,VWS V14.01,2013-05-06 11:30:00,
2013-05-06 07:33:00,50.0,48.3,30.10,NE,42,2.0,9.0,94,0.01,,---,0.01,VWS V14.01,2013-05-06 11:33:00,
2013-05-06 07:38:00,50.0,48.6,30.10,NE,36,1.0,9.0,95,0.01,,---,0.01,VWS V14.01,2013-05-06 11:38:00,
2013-05-06 07:40:00,50.0,48.6,30.10,East,90,0.0,9.0,95,0.01,,---,0.01,VWS V14.01,2013-05-06 11:40:00,
2013-05-06 07:43:00,50.1,48.7,30.10,NNE,20,1.0,6.0,95,0.02,,---,0.02,VWS V14.01,2013-05-06 11:43:00,
2013-05-06 07:48:00,50.1,48.7,30.10,ENE,78,2.0,7.0,95,0.02,,---,0.02,VWS V14.01,2013-05-06 11:48:00,
2013-05-06 07:50:00,50.2,48.8,30.10,East,99,2.0,7.0,95,0.02,,---,0.02,VWS V14.01,2013-05-06 11:50:00,
2013-05-06 07:53:00,50.2,48.8,30.10,East,80,1.0,10.0,95,0.02,,---,0.02,VWS V14.01,2013-05-06 11:53:00,
2013-05-06 07:58:00,50.2,48.8,30.10,NE,44,2.0,10.0,95,0.02,,---,0.02,VWS V14.01,2013-05-06 11:58:00,
2013-05-06 08:00:00,50.2,48.8,30.10,NE,43,2.0,10.0,95,0.02,,---,0.02,VWS V14.01,2013-05-06 12:00:00,
2013-05-06 08:03:00,50.3,48.9,30.10,NE,43,5.0,6.0,95,0.02,,---,0.02,VWS V14.01,2013-05-06 12:03:00,
2013-05-06 08:08:00,50.2,48.8,30.10,ENE,64,0.0,7.0,95,0.02,,---,0.02,VWS V14.01,2013-05-06 12:08:00,
2013-05-06 08:10:00,50.2,48.8,30.10,ENE,68,0.0,7.0,95,0.02,,---,0.02,VWS V14.01,2013-05-06 12:10:00,
2013-05-06 08:13:00,50.2,48.8,30.11,East,89,5.0,10.0,95,0.02,,---,0.02,VWS V14.01,2013-05-06 12:13:00,
2013-05-06 08:18:00,50.2,48.8,30.10,ENE,61,0.0,10.0,95,0.02,,---,0.02,VWS V14.01,2013-05-06 12:18:00,
2013-05-06 08:20:00,50.2,48.8,30.10,East,80,1.0,10.0,95,0.02,,---,0.02,VWS V14.01,2013-05-06 12:20:00,
2013-05-06 08:23:00,50.2,48.8,30.10,NE,46,3.0,8.0,95,0.02,,---,0.02,VWS V14.01,2013-05-06 12:23:00,
2013-05-06 08:28:00,50.2,48.8,30.10,ENE,77,4.0,9.0,95,0.02,,---,0.02,VWS V14.01,2013-05-06 12:28:00,
2013-05-06 08:30:00,50.2,48.8,30.10,ENE,66,2.0,9.0,95,0.02,,---,0.02,VWS V14.01,2013-05-06 12:30:00,
2013-05-06 08:33:00,50.3,48.9,30.10,ENE,63,4.0,8.0,95,0.02,,---,0.02,VWS V14.01,2013-05-06 12:33:00,
2013-05-06 08:38:00,50.4,49.0,30.09,ENE,69,5.0,8.0,95,0.02,,---,0.02,VWS V14.01,2013-05-06 12:38:00,
2013-05-06 08:40:00,50.4,49.0,30.10,ENE,74,6.0,10.0,95,0.02,,---,0.02,VWS V14.01,2013-05-06 12:40:00,
2013-05-06 08:43:00,50.4,49.0,30.10,NE,56,6.0,12.0,95,0.01,,---,0.02,VWS V14.01,2013-05-06 12:43:00,
2013-05-06 08:48:00,50.6,49.2,30.09,ENE,73,2.0,12.0,95,0.01,,---,0.02,VWS V14.01,2013-05-06 12:48:00,
2013-05-06 08:50:00,50.6,49.2,30.09,ENE,59,6.0,12.0,95,0.01,,---,0.02,VWS V14.01,2013-05-06 12:50:00,
2013-05-06 08:53:00,50.7,49.6,30.09,ENE,67,2.0,9.0,96,0.00,,---,0.02,VWS V14.01,2013-05-06 12:53:00,
2013-05-06 08:58:00,50.7,49.3,30.10,East,86,5.0,9.0,95,0.00,,---,0.02,VWS V14.01,2013-05-06 12:58:00,
2013-05-06 09:00:00,50.7,49.3,30.10,ENE,70,2.0,9.0,95,0.00,,---,0.02,VWS V14.01,2013-05-06 13:00:00,
2013-05-06 09:03:00,50.6,49.2,30.10,ENE,77,5.0,8.0,95,0.00,,---,0.02,VWS V14.01,2013-05-06 13:03:00,
2013-05-06 09:08:00,50.6,49.2,30.10,NE,47,9.0,13.0,95,0.00,,---,0.02,VWS V14.01,2013-05-06 13:08:00,
2013-05-06 09:10:00,50.6,49.2,30.10,NE,56,4.0,13.0,95,0.00,,---,0.02,VWS V14.01,2013-05-06 13:10:00,
2013-05-06 09:13:00,50.6,49.2,30.10,ENE,65,3.0,10.0,95,0.00,,---,0.02,VWS V14.01,2013-05-06 13:13:00,
2013-05-06 09:18:00,50.6,49.2,30.10,ENE,61,1.0,13.0,95,0.00,,---,0.02,VWS V14.01,2013-05-06 13:18:00,
2013-05-06 09:20:00,50.6,49.2,30.10,ENE,76,2.0,13.0,95,0.00,,---,0.02,VWS V14.01,2013-05-06 13:20:00,
2013-05-06 09:23:00,50.6,49.2,30.10,ENE,64,7.0,11.0,95,0.00,,---,0.02,VWS V14.01,2013-05-06 13:23:00,
2013-05-06 09:28:00,50.6,49.2,30.10,NE,36,0.0,12.0,95,0.00,,---,0.02,VWS V14.01,2013-05-06 13:28:00,
2013-05-06 09:30:00,50.6,49.2,30.10,ENE,58,2.0,12.0,95,0.00,,---,0.02,VWS V14.01,2013-05-06 13:30:00,
2013-05-06 09:33:00,50.8,49.4,30.10,NNE,23,1.0,6.0,95,0.00,,---,0.02,VWS V14.01,2013-05-06 13:33:00,
2013-05-06 09:38:00,51.0,49.9,30.10,NNE,28,5.0,6.0,96,0.00,,---,0.02,VWS V14.01,2013-05-06 13:38:00,
2013-05-06 09:40:00,51.0,49.6,30.10,ENE,61,3.0,6.0,95,0.00,,---,0.02,VWS V14.01,2013-05-06 13:40:00,
2013-05-06 09:43:00,51.1,49.7,30.10,ENE,71,2.0,8.0,95,0.00,,---,0.02,VWS V14.01,2013-05-06 13:43:00,
2013-05-06 09:48:00,51.1,49.7,30.10,NE,56,2.0,8.0,95,0.00,,---,0.02,VWS V14.01,2013-05-06 13:48:00,
2013-05-06 09:50:00,51.1,49.7,30.09,NE,56,8.0,10.0,95,0.00,,---,0.02,VWS V14.01,2013-05-06 13:50:00,
2013-05-06 09:53:00,51.1,49.7,30.09,NNE,15,0.0,10.0,95,0.00,,---,0.02,VWS V14.01,2013-05-06 13:53:00,
2013-05-06 09:58:00,51.2,49.8,30.10,NE,56,6.0,10.0,95,0.00,,---,0.02,VWS V14.01,2013-05-06 13:58:00,
2013-05-06 10:00:00,51.2,49.8,30.10,NE,43,5.0,10.0,95,0.00,,---,0.02,VWS V14.01,2013-05-06 14:00:00,
2013-05-06 10:03:00,51.3,50.2,30.10,ENE,68,1.0,6.0,96,0.00,,---,0.02,VWS V14.01,2013-05-06 14:03:00,
2013-05-06 10:08:00,51.4,50.0,30.10,ENE,66,4.0,6.0,95,0.00,,---,0.02,VWS V14.01,2013-05-06 14:08:00,
2013-05-06 10:10:00,51.4,50.0,30.10,ENE,57,8.0,12.0,95,0.00,,---,0.02,VWS V14.01,2013-05-06 14:10:00,
2013-05-06 10:13:00,51.4,50.0,30.10,ENE,67,2.0,8.0,95,0.00,,---,0.02,VWS V14.01,2013-05-06 14:13:00,
2013-05-06 10:18:00,51.5,50.1,30.10,East,80,6.0,8.0,95,0.00,,---,0.02,VWS V14.01,2013-05-06 14:18:00,
2013-05-06 10:20:00,51.5,50.1,30.10,East,101,2.0,8.0,95,0.00,,---,0.02,VWS V14.01,2013-05-06 14:20:00,
2013-05-06 10:23:00,51.6,50.2,30.10,NE,46,4.0,6.0,95,0.00,,---,0.02,VWS V14.01,2013-05-06 14:23:00,
2013-05-06 10:28:00,51.6,50.2,30.10,NE,53,0.0,6.0,95,0.00,,---,0.02,VWS V14.01,2013-05-06 14:28:00,
2013-05-06 10:30:00,51.6,50.2,30.10,ENE,63,6.0,6.0,95,0.00,,---,0.02,VWS V14.01,2013-05-06 14:30:00,
2013-05-06 10:33:00,51.7,50.3,30.10,ENE,60,3.0,12.0,95,0.00,,---,0.02,VWS V14.01,2013-05-06 14:33:00,
2013-05-06 10:38:00,51.8,50.4,30.10,ENE,60,3.0,12.0,95,0.00,,---,0.02,VWS V14.01,2013-05-06 14:38:00,
2013-05-06 10:40:00,51.8,50.4,30.10,ENE,68,5.0,12.0,95,0.00,,---,0.02,VWS V14.01,2013-05-06 14:40:00,
2013-05-06 10:43:00,51.8,50.4,30.10,NNE,31,5.0,8.0,95,0.00,,---,0.02,VWS V14.01,2013-05-06 14:43:00,
2013-05-06 10:48:00,52.0,50.6,30.10,NE,56,7.0,8.0,95,0.00,,---,0.02,VWS V14.01,2013-05-06 14:48:00,
2013-05-06 10:50:00,52.0,50.6,30.10,ENE,78,3.0,8.0,95,0.00,,---,0.02,VWS V14.01,2013-05-06 14:50:00,
2013-05-06 10:53:00,52.3,50.9,30.10,ENE,69,2.0,6.0,95,0.00,,---,0.02,VWS V14.01,2013-05-06 14:53:00,
2013-05-06 10:58:00,52.4,51.0,30.10,ENE,76,6.0,10.0,95,0.00,,---,0.02,VWS V14.01,2013-05-06 14:58:00,
2013-05-06 11:00:00,52.4,51.0,30.10,ENE,58,3.0,10.0,95,0.00,,---,0.02,VWS V14.01,2013-05-06 15:00:00,
2013-05-06 11:03:00,52.4,51.0,30.10,ENE,60,8.0,11.0,95,0.00,,---,0.02,VWS V14.01,2013-05-06 15:03:00,
2013-05-06 11:08:00,52.5,51.1,30.10,ENE,60,5.0,11.0,95,0.00,,---,0.02,VWS V14.01,2013-05-06 15:08:00,
2013-05-06 11:10:00,52.5,51.1,30.10,East,87,4.0,11.0,95,0.00,,---,0.02,VWS V14.01,2013-05-06 15:10:00,
2013-05-06 11:13:00,52.6,51.2,30.10,NNE,31,3.0,7.0,95,0.00,,---,0.02,VWS V14.01,2013-05-06 15:13:00,
2013-05-06 11:18:00,52.7,51.3,30.10,ENE,58,3.0,7.0,95,0.00,,---,0.02,VWS V14.01,2013-05-06 15:18:00,
2013-05-06 11:20:00,52.7,51.3,30.10,NE,37,5.0,7.0,95,0.00,,---,0.02,VWS V14.01,2013-05-06 15:20:00,
2013-05-06 11:23:00,52.8,51.1,30.10,ENE,66,1.0,9.0,94,0.00,,---,0.02,VWS V14.01,2013-05-06 15:23:00,
2013-05-06 11:28:00,53.0,51.6,30.10,NE,39,7.0,9.0,95,0.00,,---,0.02,VWS V14.01,2013-05-06 15:28:00,
2013-05-06 11:30:00,53.0,51.6,30.10,NE,46,4.0,9.0,95,0.00,,---,0.02,VWS V14.01,2013-05-06 15:30:00,
2013-05-06 11:33:00,53.0,51.3,30.10,ENE,74,3.0,8.0,94,0.00,,---,0.02,VWS V14.01,2013-05-06 15:33:00,
2013-05-06 11:38:00,53.0,51.3,30.10,NNE,21,4.0,8.0,94,0.00,,---,0.02,VWS V14.01,2013-05-06 15:38:00,
2013-05-06 11:40:00,53.0,51.3,30.10,ENE,65,4.0,8.0,94,0.00,,---,0.02,VWS V14.01,2013-05-06 15:40:00,
2013-05-06 11:43:00,53.1,51.7,30.10,East,99,3.0,5.0,95,0.00,,---,0.02,VWS V14.01,2013-05-06 15:43:00,
2013-05-06 11:48:00,52.9,51.2,30.09,ENE,64,4.0,14.0,94,0.00,,---,0.02,VWS V14.01,2013-05-06 15:48:00,
2013-05-06 11:50:00,52.9,51.2,30.09,NE,56,4.0,14.0,94,0.00,,---,0.02,VWS V14.01,2013-05-06 15:50:00,
2013-05-06 11:53:00,52.9,51.2,30.09,NNE,18,3.0,13.0,94,0.00,,---,0.02,VWS V14.01,2013-05-06 15:53:00,
2013-05-06 11:58:00,53.0,51.6,30.09,NNE,26,0.0,13.0,95,0.00,,---,0.02,VWS V14.01,2013-05-06 15:58:00,
2013-05-06 12:00:00,53.0,51.3,30.09,NNE,21,6.0,13.0,94,0.00,,---,0.02,VWS V14.01,2013-05-06 16:00:00,
2013-05-06 12:03:00,53.1,51.7,30.09,ESE,105,3.0,9.0,95,0.00,,---,0.02,VWS V14.01,2013-05-06 16:03:00,
2013-05-06 12:08:00,53.2,51.8,30.09,ENE,74,5.0,10.0,95,0.00,,---,0.02,VWS V14.01,2013-05-06 16:08:00,
2013-05-06 12:10:00,53.2,51.8,30.09,East,92,2.0,10.0,95,0.00,,---,0.02,VWS V14.01,2013-05-06 16:10:00,
2013-05-06 12:13:00,53.3,51.9,30.09,NE,56,3.0,11.0,95,0.00,,---,0.02,VWS V14.01,2013-05-06 16:13:00,
2013-05-06 12:18:00,53.4,51.7,30.09,NE,43,4.0,11.0,94,0.00,,---,0.02,VWS V14.01,2013-05-06 16:18:00,
2013-05-06 12:20:00,53.4,52.0,30.09,ESE,109,2.0,11.0,95,0.00,,---,0.02,VWS V14.01,2013-05-06 16:20:00,
2013-05-06 12:23:00,53.6,52.2,30.08,ENE,70,3.0,8.0,95,0.00,,---,0.02,VWS V14.01,2013-05-06 16:23:00,
2013-05-06 12:28:00,53.7,52.3,30.08,ENE,63,2.0,13.0,95,0.00,,---,0.02,VWS V14.01,2013-05-06 16:28:00,
2013-05-06 12:30:00,53.7,52.0,30.08,ENE,69,5.0,13.0,94,0.00,,---,0.02,VWS V14.01,2013-05-06 16:30:00,
2013-05-06 12:33:00,53.7,52.0,30.08,NE,53,3.0,13.0,94,0.00,,---,0.02,VWS V14.01,2013-05-06 16:33:00,
2013-05-06 12:38:00,53.8,52.1,30.08,NE,39,2.0,13.0,94,0.00,,---,0.02,VWS V14.01,2013-05-06 16:38:00,
2013-05-06 12:40:00,53.8,52.1,30.07,East,97,2.0,13.0,94,0.00,,---,0.02,VWS V14.01,2013-05-06 16:40:00,
2013-05-06 12:43:00,53.8,52.1,30.07,NE,46,8.0,12.0,94,0.00,,---,0.02,VWS V14.01,2013-05-06 16:43:00,
2013-05-06 12:48:00,53.9,52.2,30.07,NNE,30,3.0,12.0,94,0.00,,---,0.02,VWS V14.01,2013-05-06 16:48:00,
2013-05-06 12:50:00,53.9,52.5,30.07,ENE,70,6.0,12.0,95,0.00,,---,0.02,VWS V14.01,2013-05-06 16:50:00,
2013-05-06 12:53:00,54.0,52.3,30.07,NNW,333,2.0,8.0,94,0.00,,---,0.02,VWS V14.01,2013-05-06 16:53:00,
2013-05-06 12:59:00,54.2,52.5,30.07,NE,46,7.0,13.0,94,0.00,,---,0.02,VWS V14.01,2013-05-06 16:59:00,
2013-05-06 13:00:00,54.1,52.4,30.07,NNE,29,9.0,13.0,94,0.00,,---,0.02,VWS V14.01,2013-05-06 17:00:00,
2013-05-06 13:04:00,54.2,52.5,30.07,ENE,60,6.0,11.0,94,0.00,,---,0.02,VWS V14.01,2013-05-06 17:04:00,
2013-05-06 13:09:00,54.4,53.0,30.07,ENE,65,11.0,11.0,95,0.00,,---,0.02,VWS V14.01,2013-05-06 17:09:00,
2013-05-06 13:10:00,54.3,52.9,30.07,ENE,74,6.0,12.0,95,0.00,,---,0.02,VWS V14.01,2013-05-06 17:10:00,
2013-05-06 13:14:00,54.5,53.1,30.06,ENE,58,5.0,8.0,95,0.00,,---,0.02,VWS V14.01,2013-05-06 17:14:00,
2013-05-06 13:19:00,54.6,52.9,30.06,ENE,75,6.0,11.0,94,0.00,,---,0.02,VWS V14.01,2013-05-06 17:19:00,
2013-05-06 13:20:00,54.6,52.9,30.06,NE,37,4.0,11.0,94,0.00,,---,0.02,VWS V14.01,2013-05-06 17:20:00,
2013-05-06 13:24:00,54.7,53.3,30.06,ENE,68,7.0,7.0,95,0.00,,---,0.02,VWS V14.01,2013-05-06 17:24:00,
2013-05-06 13:29:00,54.6,52.9,30.06,NE,40,5.0,10.0,94,0.00,,---,0.02,VWS V14.01,2013-05-06 17:29:00,
2013-05-06 13:30:00,54.6,52.9,30.06,North,5,5.0,10.0,94,0.00,,---,0.02,VWS V14.01,2013-05-06 17:30:00,
2013-05-06 13:34:00,54.6,52.9,30.05,NNE,16,1.0,8.0,94,0.00,,---,0.02,VWS V14.01,2013-05-06 17:34:00,
2013-05-06 13:39:00,54.8,53.4,30.05,ENE,63,4.0,11.0,95,0.00,,---,0.02,VWS V14.01,2013-05-06 17:39:00,
2013-05-06 13:40:00,54.8,53.4,30.05,ENE,68,4.0,11.0,95,0.00,,---,0.02,VWS V14.01,2013-05-06 17:40:00,
2013-05-06 13:44:00,54.8,53.1,30.05,NNE,27,4.0,10.0,94,0.00,,---,0.02,VWS V14.01,2013-05-06 17:44:00,
2013-05-06 13:49:00,54.9,53.2,30.05,ENE,65,6.0,10.0,94,0.00,,---,0.02,VWS V14.01,2013-05-06 17:49:00,
2013-05-06 13:50:00,54.9,53.2,30.05,NE,56,6.0,10.0,94,0.00,,---,0.02,VWS V14.01,2013-05-06 17:50:00,
2013-05-06 13:54:00,54.9,53.5,30.05,ENE,58,4.0,7.0,95,0.00,,---,0.02,VWS V14.01,2013-05-06 17:54:00,
2013-05-06 13:59:00,54.8,53.1,30.05,NE,53,2.0,9.0,94,0.00,,---,0.02,VWS V14.01,2013-05-06 17:59:00,
2013-05-06 14:00:00,54.8,53.1,30.05,NE,56,6.0,9.0,94,0.00,,---,0.02,VWS V14.01,2013-05-06 18:00:00,
2013-05-06 14:04:00,54.8,53.4,30.05,ENE,70,5.0,11.0,95,0.00,,---,0.02,VWS V14.01,2013-05-06 18:04:00,
2013-05-06 14:09:00,54.9,53.5,30.05,ENE,60,5.0,11.0,95,0.00,,---,0.02,VWS V14.01,2013-05-06 18:09:00,
2013-05-06 14:10:00,54.9,53.5,30.05,NNE,28,6.0,11.0,95,0.00,,---,0.02,VWS V14.01,2013-05-06 18:10:00,
2013-05-06 14:14:00,54.9,53.5,30.05,NE,46,3.0,8.0,95,0.00,,---,0.02,VWS V14.01,2013-05-06 18:14:00,
2013-05-06 14:19:00,54.9,53.5,30.05,NE,51,1.0,8.0,95,0.00,,---,0.02,VWS V14.01,2013-05-06 18:19:00,
2013-05-06 14:20:00,54.9,53.5,30.05,ENE,78,0.0,8.0,95,0.00,,---,0.02,VWS V14.01,2013-05-06 18:20:00,
2013-05-06 14:24:00,55.0,53.6,30.05,NE,47,3.0,7.0,95,0.00,,---,0.02,VWS V14.01,2013-05-06 18:24:00,
2013-05-06 14:29:00,55.0,53.6,30.05,NE,44,8.0,9.0,95,0.00,,---,0.02,VWS V14.01,2013-05-06 18:29:00,
2013-05-06 14:30:00,55.0,53.6,30.05,NNE,23,9.0,11.0,95,0.00,,---,0.02,VWS V14.01,2013-05-06 18:30:00,
2013-05-06 14:34:00,55.0,53.6,30.04,NE,50,5.0,13.0,95,0.00,,---,0.02,VWS V14.01,2013-05-06 18:34:00,
2013-05-06 14:39:00,55.1,54.0,30.04,NE,50,4.0,13.0,96,0.00,,---,0.02,VWS V14.01,2013-05-06 18:39:00,
2013-05-06 14:40:00,55.1,54.0,30.04,ENE,61,6.0,13.0,96,0.00,,---,0.02,VWS V14.01,2013-05-06 18:40:00,
2013-05-06 14:44:00,55.3,54.2,30.04,ENE,67,2.0,7.0,96,0.00,,---,0.02,VWS V14.01,2013-05-06 18:44:00,
2013-05-06 14:49:00,55.4,54.3,30.04,NE,46,2.0,10.0,96,0.00,,---,0.02,VWS V14.01,2013-05-06 18:49:00,
2013-05-06 14:50:00,55.4,54.3,30.04,NNE,18,4.0,10.0,96,0.00,,---,0.02,VWS V14.01,2013-05-06 18:50:00,
2013-05-06 14:54:00,55.4,54.3,30.04,NNW,331,3.0,11.0,96,0.00,,---,0.02,VWS V14.01,2013-05-06 18:54:00,
2013-05-06 14:59:00,55.5,54.4,30.04,ENE,75,4.0,11.0,96,0.00,,---,0.02,VWS V14.01,2013-05-06 18:59:00,
2013-05-06 15:00:00,55.5,54.4,30.04,NE,53,4.0,11.0,96,0.00,,---,0.02,VWS V14.01,2013-05-06 19:00:00,
2013-05-06 15:04:00,55.6,54.5,30.04,East,94,2.0,10.0,96,0.00,,---,0.02,VWS V14.01,2013-05-06 19:04:00,
2013-05-06 15:09:00,55.6,54.5,30.04,ENE,76,2.0,12.0,96,0.00,,---,0.02,VWS V14.01,2013-05-06 19:09:00,
2013-05-06 15:10:00,55.6,54.5,30.04,ENE,74,3.0,12.0,96,0.00,,---,0.02,VWS V14.01,2013-05-06 19:10:00,
2013-05-06 15:14:00,55.7,54.6,30.04,NNE,20,5.0,11.0,96,0.00,,---,0.02,VWS V14.01,2013-05-06 19:14:00,
2013-05-06 15:19:00,55.7,54.6,30.03,ENE,65,4.0,11.0,96,0.00,,---,0.02,VWS V14.01,2013-05-06 19:19:00,
2013-05-06 15:20:00,55.7,54.6,30.03,NE,41,5.0,11.0,96,0.00,,---,0.02,VWS V14.01,2013-05-06 19:20:00,
2013-05-06 15:24:00,55.7,54.6,30.03,NE,46,9.0,13.0,96,0.00,,---,0.02,VWS V14.01,2013-05-06 19:24:00,
2013-05-06 15:29:00,55.7,54.6,30.03,ENE,60,3.0,13.0,96,0.00,,---,0.02,VWS V14.01,2013-05-06 19:29:00,
2013-05-06 15:30:00,55.7,54.6,30.03,NNE,26,12.0,13.0,96,0.00,,---,0.02,VWS V14.01,2013-05-06 19:30:00,
2013-05-06 15:34:00,55.7,54.6,30.03,ENE,70,3.0,12.0,96,0.00,,---,0.02,VWS V14.01,2013-05-06 19:34:00,
2013-05-06 15:39:00,55.8,54.7,30.02,North,356,3.0,12.0,96,0.00,,---,0.02,VWS V14.01,2013-05-06 19:39:00,
2013-05-06 15:40:00,55.8,54.7,30.02,East,80,2.0,12.0,96,0.00,,---,0.02,VWS V14.01,2013-05-06 19:40:00,
2013-05-06 15:44:00,55.9,54.8,30.02,ENE,61,6.0,9.0,96,0.00,,---,0.02,VWS V14.01,2013-05-06 19:44:00,
2013-05-06 15:49:00,55.9,54.8,30.02,East,88,3.0,14.0,96,0.00,,---,0.02,VWS V14.01,2013-05-06 19:49:00,
2013-05-06 15:50:00,55.9,54.8,30.02,NE,56,4.0,14.0,96,0.00,,---,0.02,VWS V14.01,2013-05-06 19:50:00,
2013-05-06 15:54:00,56.0,54.9,30.01,NE,42,8.0,11.0,96,0.01,,---,0.03,VWS V14.01,2013-05-06 19:54:00,
2013-05-06 15:59:00,56.0,54.9,30.01,NE,53,6.0,12.0,96,0.01,,---,0.03,VWS V14.01,2013-05-06 19:59:00,
2013-05-06 16:00:00,56.0,54.9,30.01,NE,53,7.0,12.0,96,0.01,,---,0.03,VWS V14.01,2013-05-06 20:00:00,
2013-05-06 16:04:00,56.0,54.9,30.01,ENE,67,4.0,10.0,96,0.01,,---,0.03,VWS V14.01,2013-05-06 20:04:00,
2013-05-06 16:09:00,56.1,55.0,30.01,NNE,28,4.0,12.0,96,0.01,,---,0.03,VWS V14.01,2013-05-06 20:09:00,
2013-05-06 16:10:00,56.1,55.0,30.01,NNE,29,2.0,12.0,96,0.01,,---,0.03,VWS V14.01,2013-05-06 20:10:00,
2013-05-06 16:14:00,56.1,55.0,30.01,ENE,65,2.0,15.0,96,0.01,,---,0.03,VWS V14.01,2013-05-06 20:14:00,
2013-05-06 16:19:00,56.2,55.1,30.01,NE,43,4.0,15.0,96,0.01,,---,0.03,VWS V14.01,2013-05-06 20:19:00,
2013-05-06 16:20:00,56.2,55.1,30.01,ENE,65,5.0,15.0,96,0.01,,---,0.03,VWS V14.01,2013-05-06 20:20:00,
2013-05-06 16:24:00,56.2,55.1,30.00,NNE,31,12.0,12.0,96,0.01,,---,0.03,VWS V14.01,2013-05-06 20:24:00,
2013-05-06 16:29:00,56.1,55.0,30.00,NE,53,12.0,14.0,96,0.01,,---,0.03,VWS V14.01,2013-05-06 20:29:00,
2013-05-06 16:30:00,56.1,55.0,30.00,ENE,58,6.0,14.0,96,0.01,,---,0.03,VWS V14.01,2013-05-06 20:30:00,
2013-05-06 16:34:00,56.1,55.0,30.00,NE,56,9.0,14.0,96,0.01,,---,0.03,VWS V14.01,2013-05-06 20:34:00,
2013-05-06 16:39:00,56.1,55.0,30.00,ENE,58,5.0,14.0,96,0.01,,---,0.03,VWS V14.01,2013-05-06 20:39:00,
2013-05-06 16:40:00,56.1,55.0,30.00,ENE,75,9.0,14.0,96,0.01,,---,0.03,VWS V14.01,2013-05-06 20:40:00,
2013-05-06 16:44:00,56.1,55.0,30.00,ENE,62,7.0,14.0,96,0.01,,---,0.03,VWS V14.01,2013-05-06 20:44:00,
2013-05-06 16:49:00,56.1,55.3,29.99,NE,53,5.0,14.0,97,0.01,,---,0.03,VWS V14.01,2013-05-06 20:49:00,
2013-05-06 16:50:00,56.1,55.3,29.99,ENE,66,10.0,14.0,97,0.01,,---,0.03,VWS V14.01,2013-05-06 20:50:00,
2013-05-06 16:54:00,56.2,55.4,29.99,ENE,64,8.0,16.0,97,0.01,,---,0.03,VWS V14.01,2013-05-06 20:54:00,
2013-05-06 16:59:00,56.2,55.4,29.99,NE,39,3.0,16.0,97,0.01,,---,0.03,VWS V14.01,2013-05-06 20:59:00,
2013-05-06 17:00:00,56.2,55.4,29.99,NE,44,5.0,16.0,97,0.01,,---,0.03,VWS V14.01,2013-05-06 21:00:00,
2013-05-06 17:04:00,56.2,55.4,29.99,NE,53,5.0,10.0,97,0.00,,---,0.03,VWS V14.01,2013-05-06 21:04:00,
2013-05-06 17:09:00,56.2,55.4,30.00,ENE,62,10.0,11.0,97,0.00,,---,0.03,VWS V14.01,2013-05-06 21:09:00,
2013-05-06 17:10:00,56.2,55.4,30.00,NE,48,6.0,11.0,97,0.00,,---,0.03,VWS V14.01,2013-05-06 21:10:00,
2013-05-06 17:14:00,56.2,55.4,30.00,North,11,4.0,12.0,97,0.00,,---,0.03,VWS V14.01,2013-05-06 21:14:00,
2013-05-06 17:19:00,56.3,55.5,29.99,ENE,60,4.0,12.0,97,0.00,,---,0.03,VWS V14.01,2013-05-06 21:19:00,
2013-05-06 17:20:00,56.3,55.5,29.99,NE,39,4.0,12.0,97,0.00,,---,0.03,VWS V14.01,2013-05-06 21:20:00,
2013-05-06 17:24:00,56.4,55.6,29.99,ENE,57,3.0,12.0,97,0.00,,---,0.03,VWS V14.01,2013-05-06 21:24:00,
2013-05-06 17:29:00,56.5,55.7,29.99,NE,43,8.0,12.0,97,0.00,,---,0.03,VWS V14.01,2013-05-06 21:29:00,
2013-05-06 17:30:00,56.5,55.7,29.99,NE,39,7.0,12.0,97,0.00,,---,0.03,VWS V14.01,2013-05-06 21:30:00,
2013-05-06 17:34:00,56.5,55.7,29.99,ENE,68,6.0,11.0,97,0.00,,---,0.03,VWS V14.01,2013-05-06 21:34:00,
2013-05-06 17:39:00,56.6,55.8,29.99,NE,55,3.0,11.0,97,0.00,,---,0.03,VWS V14.01,2013-05-06 21:39:00,
2013-05-06 17:40:00,56.6,55.8,29.99,NE,47,3.0,11.0,97,0.00,,---,0.03,VWS V14.01,2013-05-06 21:40:00,
2013-05-06 17:44:00,56.7,55.9,29.99,NE,56,1.0,7.0,97,0.00,,---,0.03,VWS V14.01,2013-05-06 21:44:00,
2013-05-06 17:49:00,56.8,56.0,29.98,North,1,6.0,12.0,97,0.00,,---,0.03,VWS V14.01,2013-05-06 21:49:00,
2013-05-06 17:50:00,56.8,56.0,29.98,North,1,6.0,12.0,97,0.00,,---,0.03,VWS V14.01,2013-05-06 21:50:00,
2013-05-06 17:54:00,56.9,56.1,29.98,NE,49,4.0,9.0,97,0.00,,---,0.03,VWS V14.01,2013-05-06 21:54:00,
2013-05-06 17:59:00,56.9,56.1,29.98,NE,43,4.0,9.0,97,0.00,,---,0.03,VWS V14.01,2013-05-06 21:59:00,
2013-05-06 18:00:00,56.9,56.1,29.98,NE,38,4.0,9.0,97,0.00,,---,0.03,VWS V14.01,2013-05-06 22:00:00,
2013-05-06 18:04:00,57.0,56.2,29.98,NNE,33,6.0,8.0,97,0.00,,---,0.03,VWS V14.01,2013-05-06 22:04:00,
2013-05-06 18:09:00,57.1,56.3,29.98,NE,49,7.0,13.0,97,0.00,,---,0.03,VWS V14.01,2013-05-06 22:09:00,
2013-05-06 18:10:00,57.1,56.3,29.98,NE,49,7.0,13.0,97,0.00,,---,0.03,VWS V14.01,2013-05-06 22:10:00,
2013-05-06 18:14:00,57.2,56.4,29.97,WNW,285,0.0,8.0,97,0.00,,---,0.03,VWS V14.01,2013-05-06 22:14:00,
2013-05-06 18:19:00,57.2,56.4,29.98,East,86,3.0,8.0,97,0.00,,---,0.03,VWS V14.01,2013-05-06 22:19:00,
2013-05-06 18:20:00,57.2,56.4,29.98,East,86,3.0,8.0,97,0.00,,---,0.03,VWS V14.01,2013-05-06 22:20:00,
2013-05-06 18:24:00,57.4,56.6,29.98,NE,53,5.0,9.0,97,0.01,,---,0.04,VWS V14.01,2013-05-06 22:24:00,
2013-05-06 18:29:00,57.5,56.7,29.98,NE,34,8.0,10.0,97,0.01,,---,0.04,VWS V14.01,2013-05-06 22:29:00,
2013-05-06 18:30:00,57.5,56.7,29.98,NE,34,8.0,10.0,97,0.01,,---,0.04,VWS V14.01,2013-05-06 22:30:00,
2013-05-06 18:34:00,57.6,56.5,29.98,NE,39,5.0,10.0,96,0.01,,---,0.04,VWS V14.01,2013-05-06 22:34:00,
2013-05-06 18:39:00,57.7,56.6,29.97,NE,46,3.0,10.0,96,0.01,,---,0.04,VWS V14.01,2013-05-06 22:39:00,
2013-05-06 18:40:00,57.7,56.6,29.97,NE,46,3.0,10.0,96,0.01,,---,0.04,VWS V14.01,2013-05-06 22:40:00,
2013-05-06 18:44:00,57.8,56.7,29.97,ENE,58,3.0,8.0,96,0.01,,---,0.04,VWS V14.01,2013-05-06 22:44:00,
2013-05-06 18:49:00,57.8,56.7,29.97,NE,39,7.0,10.0,96,0.01,,---,0.04,VWS V14.01,2013-05-06 22:49:00,
2013-05-06 18:50:00,57.8,56.7,29.97,NE,39,7.0,10.0,96,0.01,,---,0.04,VWS V14.01,2013-05-06 22:50:00,
2013-05-06 18:54:00,58.0,56.9,29.98,NE,41,7.0,9.0,96,0.01,,---,0.04,VWS V14.01,2013-05-06 22:54:00,
2013-05-06 18:59:00,58.0,56.9,29.98,NE,53,4.0,9.0,96,0.01,,---,0.04,VWS V14.01,2013-05-06 22:59:00,
2013-05-06 19:00:00,58.0,56.9,29.98,NE,53,4.0,9.0,96,0.01,,---,0.04,VWS V14.01,2013-05-06 23:00:00,
2013-05-06 19:04:00,58.1,57.0,29.97,ENE,67,3.0,7.0,96,0.01,,---,0.04,VWS V14.01,2013-05-06 23:04:00,
2013-05-06 19:09:00,58.2,57.1,29.97,NE,56,4.0,4.0,96,0.01,,---,0.04,VWS V14.01,2013-05-06 23:09:00,
2013-05-06 19:10:00,58.2,57.1,29.97,NW,323,4.0,10.0,96,0.01,,---,0.04,VWS V14.01,2013-05-06 23:10:00,
2013-05-06 19:14:00,58.3,57.2,29.97,NE,34,6.0,10.0,96,0.01,,---,0.04,VWS V14.01,2013-05-06 23:14:00,
2013-05-06 19:19:00,58.4,57.3,29.98,ENE,65,9.0,9.0,96,0.01,,---,0.04,VWS V14.01,2013-05-06 23:19:00,
2013-05-06 19:20:00,58.4,57.3,29.98,NNW,333,4.0,10.0,96,0.01,,---,0.04,VWS V14.01,2013-05-06 23:20:00,
2013-05-06 19:24:00,58.5,57.4,29.98,NE,52,7.0,9.0,96,0.01,,---,0.04,VWS V14.01,2013-05-06 23:24:00,
2013-05-06 19:29:00,58.6,57.5,29.98,ENE,75,1.0,2.0,96,0.00,,---,0.04,VWS V14.01,2013-05-06 23:29:00,
2013-05-06 19:30:00,58.6,57.5,29.98,NE,56,0.0,9.0,96,0.01,,---,0.04,VWS V14.01,2013-05-06 23:30:00,
2013-05-06 19:34:00,58.6,57.5,29.98,North,350,9.0,14.0,96,0.00,,---,0.04,VWS V14.01,2013-05-06 23:34:00,
2013-05-06 19:39:00,58.8,57.4,29.98,NE,56,5.0,6.0,95,0.00,,---,0.04,VWS V14.01,2013-05-06 23:39:00,
2013-05-06 19:40:00,58.7,57.6,29.98,NNE,20,6.0,14.0,96,0.00,,---,0.04,VWS V14.01,2013-05-06 23:40:00,
2013-05-06 19:44:00,58.8,57.7,29.98,ENE,63,2.0,9.0,96,0.01,,---,0.05,VWS V14.01,2013-05-06 23:44:00,
2013-05-06 19:49:00,58.8,57.7,29.97,NE,53,4.0,7.0,96,0.01,,---,0.05,VWS V14.01,2013-05-06 23:49:00,
2013-05-06 19:50:00,58.8,57.7,29.97,NNE,25,7.0,13.0,96,0.01,,---,0.05,VWS V14.01,2013-05-06 23:50:00,
2013-05-06 19:54:00,58.8,57.7,29.97,NNE,31,7.0,9.0,96,0.02,,---,0.06,VWS V14.01,2013-05-06 23:54:00,
2013-05-06 19:59:00,58.8,57.7,29.97,NE,37,6.0,8.0,96,0.03,,---,0.07,VWS V14.01,2013-05-06 23:59:00,
2013-05-06 20:00:00,58.8,57.7,29.97,NNE,26,6.0,12.0,96,0.03,,---,0.07,VWS V14.01,2013-05-07 00:00:00,
2013-05-06 20:04:00,58.8,57.7,29.97,ENE,75,2.0,8.0,96,0.04,,---,0.08,VWS V14.01,2013-05-07 00:04:00,
2013-05-06 20:09:00,58.9,57.8,29.98,NE,52,4.0,4.0,96,0.05,,---,0.09,VWS V14.01,2013-05-07 00:09:00,
2013-05-06 20:10:00,58.8,57.7,29.98,ENE,60,4.0,8.0,96,0.05,,---,0.09,VWS V14.01,2013-05-07 00:10:00,
2013-05-06 20:14:00,58.9,57.8,29.98,ENE,60,8.0,11.0,96,0.05,,---,0.09,VWS V14.01,2013-05-07 00:14:00,
2013-05-06 20:19:00,59.0,57.9,29.98,NE,56,10.0,13.0,96,0.05,,---,0.09,VWS V14.01,2013-05-07 00:19:00,
2013-05-06 20:20:00,59.0,57.9,29.98,NE,44,11.0,12.0,96,0.05,,---,0.09,VWS V14.01,2013-05-07 00:20:00,
2013-05-06 20:25:00,59.0,57.9,29.98,ENE,67,6.0,14.0,96,0.06,,---,0.10,VWS V14.01,2013-05-07 00:25:00,
2013-05-06 20:30:00,59.0,57.9,29.98,SE,145,4.0,5.0,96,0.07,,---,0.11,VWS V14.01,2013-05-07 00:30:00,
2013-05-06 20:35:00,59.0,57.9,29.98,SE,131,6.0,8.0,96,0.08,,---,0.12,VWS V14.01,2013-05-07 00:35:00,
2013-05-06 20:40:00,59.0,57.9,29.98,ENE,65,5.0,7.0,96,0.09,,---,0.13,VWS V14.01,2013-05-07 00:40:00,
2013-05-06 20:45:00,59.0,57.9,29.98,NE,50,4.0,9.0,96,0.10,,---,0.14,VWS V14.01,2013-05-07 00:45:00,
2013-05-06 20:50:00,59.0,57.9,29.98,ENE,72,3.0,4.0,96,0.11,,---,0.16,VWS V14.01,2013-05-07 00:50:00,
2013-05-06 20:55:00,59.0,57.9,29.98,East,94,1.0,5.0,96,0.12,,---,0.17,VWS V14.01,2013-05-07 00:55:00,
2013-05-06 21:00:00,59.0,57.9,29.98,East,91,3.0,5.0,96,0.11,,---,0.18,VWS V14.01,2013-05-07 01:00:00,
2013-05-06 21:05:00,59.0,58.2,29.98,East,80,5.0,10.0,97,0.13,,---,0.20,VWS V14.01,2013-05-07 01:05:00,
2013-05-06 21:10:00,59.1,58.2,29.99,ENE,61,3.0,6.0,97,0.12,,---,0.21,VWS V14.01,2013-05-07 01:10:00,
2013-05-06 21:15:00,59.2,58.1,29.98,NE,52,6.0,14.0,96,0.13,,---,0.22,VWS V14.01,2013-05-07 01:15:00,
2013-05-06 21:20:00,59.3,58.2,29.98,NE,43,13.0,13.0,96,0.15,,---,0.24,VWS V14.01,2013-05-07 01:20:00,
2013-05-06 21:25:00,59.3,58.2,29.98,ENE,58,8.0,14.0,96,0.16,,---,0.25,VWS V14.01,2013-05-07 01:25:00,
2013-05-06 21:30:00,59.4,58.3,29.99,ENE,58,5.0,8.0,96,0.15,,---,0.26,VWS V14.01,2013-05-07 01:30:00,
2013-05-06 21:35:00,59.4,58.3,29.99,ENE,60,11.0,12.0,96,0.16,,---,0.27,VWS V14.01,2013-05-07 01:35:00,
2013-05-06 21:40:00,59.4,58.3,29.99,NE,46,3.0,8.0,96,0.16,,---,0.29,VWS V14.01,2013-05-07 01:40:00,
2013-05-06 21:45:00,59.5,58.4,29.99,East,82,9.0,18.0,96,0.17,,---,0.30,VWS V14.01,2013-05-07 01:45:00,
2013-05-06 21:50:00,59.5,58.4,29.99,ENE,74,4.0,6.0,96,0.16,,---,0.31,VWS V14.01,2013-05-07 01:50:00,
2013-05-06 21:55:00,59.5,58.4,29.99,ENE,76,4.0,11.0,96,0.17,,---,0.32,VWS V14.01,2013-05-07 01:55:00,
2013-05-06 22:00:00,59.5,58.4,29.99,ENE,65,4.0,9.0,96,0.15,,---,0.33,VWS V14.01,2013-05-07 02:00:00,
2013-05-06 22:05:00,59.6,58.5,30.00,East,85,8.0,14.0,96,0.16,,---,0.34,VWS V14.01,2013-05-07 02:05:00,
2013-05-06 22:10:00,59.5,58.4,30.00,ENE,65,7.0,7.0,96,0.14,,---,0.35,VWS V14.01,2013-05-07 02:10:00,
2013-05-06 22:15:00,59.5,58.4,30.00,ENE,76,7.0,13.0,96,0.15,,---,0.36,VWS V14.01,2013-05-07 02:15:00,
2013-05-06 22:20:00,59.5,58.4,30.00,ENE,60,5.0,8.0,96,0.14,,---,0.37,VWS V14.01,2013-05-07 02:20:00,
2013-05-06 22:25:00,59.5,58.4,30.00,ENE,63,6.0,12.0,96,0.15,,---,0.38,VWS V14.01,2013-05-07 02:25:00,
2013-05-06 22:30:00,59.5,58.4,30.00,ENE,63,4.0,9.0,96,0.13,,---,0.39,VWS V14.01,2013-05-07 02:30:00,
2013-05-06 22:35:00,59.5,58.4,30.00,ENE,68,8.0,12.0,96,0.13,,---,0.39,VWS V14.01,2013-05-07 02:35:00,
2013-05-06 22:40:00,59.5,58.4,30.00,ENE,74,4.0,6.0,96,0.12,,---,0.40,VWS V14.01,2013-05-07 02:40:00,
2013-05-06 22:45:00,59.6,58.2,30.00,NE,56,6.0,14.0,95,0.13,,---,0.41,VWS V14.01,2013-05-07 02:45:00,
2013-05-06 22:50:00,59.6,58.2,29.99,East,85,10.0,10.0,95,0.11,,---,0.42,VWS V14.01,2013-05-07 02:50:00,
2013-05-06 22:55:00,59.6,58.2,30.00,East,81,13.0,15.0,95,0.11,,---,0.42,VWS V14.01,2013-05-07 02:55:00,
2013-05-06 23:00:00,59.5,58.4,29.99,East,81,8.0,10.0,96,0.10,,---,0.43,VWS V14.01,2013-05-07 03:00:00,
2013-05-06 23:05:00,59.5,58.4,29.99,ENE,60,6.0,12.0,96,0.10,,---,0.43,VWS V14.01,2013-05-07 03:05:00,
2013-05-06 23:10:00,59.5,58.4,29.99,ENE,77,8.0,9.0,96,0.09,,---,0.44,VWS V14.01,2013-05-07 03:10:00,
2013-05-06 23:15:00,59.5,58.4,29.99,East,81,6.0,13.0,96,0.09,,---,0.44,VWS V14.01,2013-05-07 03:15:00,
2013-05-06 23:20:00,59.5,58.4,29.98,ESE,113,8.0,8.0,96,0.08,,---,0.45,VWS V14.01,2013-05-07 03:20:00,
2013-05-06 23:25:00,59.5,58.4,29.98,East,91,7.0,13.0,96,0.08,,---,0.45,VWS V14.01,2013-05-07 03:25:00,
2013-05-06 23:30:00,59.5,58.4,29.98,ENE,76,8.0,10.0,96,0.07,,---,0.45,VWS V14.01,2013-05-07 03:30:00,
2013-05-06 23:35:00,59.4,58.3,29.98,ENE,78,7.0,12.0,96,0.07,,---,0.45,VWS V14.01,2013-05-07 03:35:00,
2013-05-06 23:40:00,59.4,58.3,29.98,East,95,4.0,8.0,96,0.05,,---,0.45,VWS V14.01,2013-05-07 03:40:00,
2013-05-06 23:45:00,59.5,58.4,29.98,NE,52,10.0,15.0,96,0.05,,---,0.45,VWS V14.01,2013-05-07 03:45:00,
2013-05-06 23:50:00,59.4,58.3,29.98,NE,47,10.0,12.0,96,0.04,,---,0.45,VWS V14.01,2013-05-07 03:50:00,
2013-05-06 23:55:00,59.4,58.3,29.98,East,79,8.0,12.0,96,0.04,,---,0.45,VWS V14.01,2013-05-07 03:55:00,